Theta_e
348 349 352 356 356 357 357 357 358 358 358 359 359 359 359 359 359 359 358 357 357 357 357 356 356 355 355 355 356 355 355 355 354 354 354 354 353 352 351 351 351 351 352 352 352 352 352 352 352 351 350 350 350 350 352 351 351 351 350 351 351 351 350 350 349 349 349 349 349 348 348 348 347 348 348 348 348 348 346 345 344 340 341 342 344
347 351 353 354 356 357 357 358 357 357 358 359 359 359 358 359 358 358 357 357 357 357 356 356 356 355 355 355 355 355 355 355 354 354 354 354 353 352 351 351 351 351 352 352 352 353 353 353 353 353 354 354 354 353 352 350 349 350 350 350 350 350 349 349 349 349 348 348 347 348 347 347 347 347 348 348 347 347 346 346 345 340 340 344 344
350 352 352 353 357 357 357 358 357 357 358 358 358 359 358 358 358 357 357 357 357 356 356 355 355 355 354 354 354 354 354 354 354 354 353 353 352 352 350 350 351 351 351 351 353 353 353 353 353 353 353 353 353 353 352 352 351 349 349 350 350 349 349 349 348 348 349 349 349 349 348 348 346 346 347 347 347 346 345 345 345 344 341 344 343
350 351 352 355 356 356 357 357 357 357 357 357 357 358 358 358 358 357 357 357 356 356 355 355 355 354 354 354 354 354 354 354 354 354 353 352 350 350 350 350 351 351 351 351 352 353 353 353 352 352 351 351 351 350 350 350 351 350 350 349 350 349 351 350 349 349 348 348 348 348 348 343 344 346 346 346 346 346 345 345 345 344 344 344 343
351 352 353 354 354 356 356 357 357 357 357 357 357 358 357 357 357 357 357 356 356 355 355 355 354 354 354 354 354 354 354 354 354 353 352 350 350 349 350 350 350 351 351 351 352 352 352 351 351 351 351 352 352 351 351 350 349 350 349 349 349 347 346 348 347 348 349 349 349 348 345 342 343 346 346 346 346 346 346 345 344 344 344 344 344
351 352 352 351 353 354 356 356 356 356 356 356 356 357 357 357 356 356 356 355 355 354 354 354 354 354 354 354 354 354 354 353 352 351 350 350 350 350 349 350 350 350 351 352 352 352 352 351 351 352 352 352 352 352 352 352 351 351 351 350 347 350 349 347 349 346 349 350 350 349 347 343 343 344 347 347 346 346 346 345 344 344 346 346 344
351 351 351 351 352 354 356 356 356 356 356 356 356 357 356 356 356 355 355 355 354 354 354 354 354 354 354 354 354 354 352 351 350 350 350 350 349 349 348 349 350 350 351 352 352 352 352 352 351 352 350 351 351 351 350 351 351 351 351 352 350 351 350 351 350 349 347 349 348 348 347 339 343 344 347 347 347 346 345 344 344 346 346 347 346
350 349 350 352 352 355 356 356 356 356 355 355 355 355 355 355 355 355 355 354 354 354 354 354 354 354 354 354 354 352 351 351 350 350 349 349 349 349 348 349 349 349 350 351 351 351 352 352 351 350 349 350 349 348 348 348 349 349 349 349 350 352 352 352 351 352 352 347 344 345 345 341 342 344 347 347 347 347 345 345 344 344 345 347 346
347 349 351 353 353 355 355 355 355 355 355 355 354 355 355 354 354 354 354 354 353 354 354 354 354 354 354 354 353 352 351 350 349 349 348 348 348 348 348 348 349 348 349 350 351 352 352 352 350 349 349 349 348 349 348 348 348 348 348 347 348 349 351 352 353 353 351 349 346 343 340 341 342 343 346 347 347 347 346 345 345 345 345 346 345
346 349 353 354 353 356 355 355 355 355 355 354 354 354 354 354 354 354 353 353 354 354 354 354 354 354 354 353 352 351 350 349 348 348 348 347 347 346 347 347 349 348 348 350 351 352 351 351 350 349 348 347 348 348 347 347 347 347 348 346 346 347 348 349 352 352 349 343 341 341 342 347 342 343 346 347 348 348 347 347 345 345 345 345 346
347 351 354 353 353 356 355 354 355 354 354 353 353 353 353 353 353 353 353 353 354 354 354 354 354 354 353 352 351 350 350 348 348 347 348 346 346 346 346 347 348 349 349 350 351 351 352 351 350 348 348 348 347 347 346 347 346 348 345 348 347 347 345 347 350 347 343 343 341 340 346 350 343 344 347 347 348 348 347 346 346 345 345 345 344
348 354 355 353 357 355 354 354 354 354 354 353 353 353 353 353 353 353 353 353 353 354 354 354 354 353 352 351 350 349 349 348 347 346 345 346 345 345 346 346 347 348 349 349 350 351 350 349 348 348 346 347 346 347 346 346 347 347 347 348 349 350 350 349 343 339 342 340 340 342 343 344 344 345 347 347 348 347 347 345 345 346 346 345 345
351 355 355 354 353 355 354 354 354 354 354 353 353 353 353 354 353 353 353 353 354 353 353 353 352 352 351 351 350 349 347 347 346 345 344 345 345 345 345 345 346 347 348 349 349 349 348 348 348 347 347 345 346 344 345 346 345 348 348 349 349 350 350 345 341 341 342 341 341 343 344 344 345 347 347 348 348 347 346 346 345 346 346 346 346
355 355 354 352 352 356 354 354 353 354 354 353 353 353 353 353 353 353 354 354 354 353 353 353 352 351 351 350 349 348 347 345 345 345 344 344 345 344 344 345 346 346 347 348 348 349 348 348 348 348 348 347 345 345 344 345 346 348 348 349 350 351 347 343 343 344 342 342 344 344 345 345 344 347 347 348 348 347 347 347 346 347 346 346 346
356 354 352 352 352 352 356 354 354 354 353 353 353 354 354 354 353 353 354 353 353 353 353 352 352 349 349 348 347 347 345 345 344 344 344 344 344 344 344 346 346 346 346 347 348 348 348 347 347 345 345 346 344 345 346 346 347 347 348 349 351 347 345 341 344 344 348 349 344 344 344 345 348 347 347 348 348 347 347 347 346 346 346 345 344
357 353 352 351 350 351 352 355 354 354 354 354 354 354 354 354 353 353 353 353 353 351 351 350 349 349 348 348 347 346 345 345 344 344 344 344 344 344 347 347 345 345 345 346 347 347 347 346 345 346 344 344 347 345 346 346 347 347 347 350 347 346 346 343 344 346 348 349 344 345 344 345 347 347 347 348 348 347 346 346 345 345 344 344 344
355 354 351 350 350 349 349 351 352 354 354 354 354 354 354 353 353 353 352 352 351 351 350 349 349 348 348 348 347 345 345 344 344 344 344 345 344 346 347 345 345 344 345 346 347 346 345 345 344 343 346 344 345 347 344 347 346 346 348 350 345 348 348 347 349 347 342 346 346 344 343 344 347 347 347 346 345 344 344 344 344 343 343 343 342
352 351 349 349 348 348 349 349 350 351 352 353 354 354 353 353 353 353 352 350 350 349 349 348 348 348 348 347 346 345 344 344 344 345 344 346 347 347 346 345 345 344 346 347 347 346 345 344 345 343 342 347 344 345 347 346 347 346 348 349 346 347 350 350 351 345 343 346 345 345 345 347 346 345 344 343 341 341 341 340 340 340 340 340 340
351 351 350 349 348 349 348 349 349 348 350 351 351 352 353 353 352 352 350 350 349 348 347 348 348 348 347 347 345 345 344 343 344 345 345 347 346 345 346 344 345 345 345 346 347 346 345 344 344 343 344 346 347 345 346 345 345 347 348 349 347 348 349 350 350 344 345 343 344 344 343 345 344 343 342 340 340 340 339 338 338 337 337 338 338
350 350 349 349 348 348 347 347 348 347 348 350 350 350 353 353 352 351 350 349 348 348 348 348 347 346 347 346 345 344 344 343 344 343 344 345 346 345 345 344 344 345 346 345 346 346 346 344 342 346 346 346 347 348 345 344 346 346 347 346 347 350 347 351 343 344 343 345 344 342 344 343 342 341 339 338 338 338 337 336 335 336 335 334 334
349 349 348 348 348 347 347 347 347 346 347 348 349 350 351 352 351 351 350 349 348 348 349 348 347 346 345 344 344 342 343 343 343 341 344 343 345 347 346 345 344 345 345 345 346 347 346 345 344 345 346 347 346 345 344 346 345 346 345 346 348 346 345 344 343 345 344 344 343 341 344 342 341 339 338 338 338 336 333 332 333 333 330 329 330
346 347 348 347 347 347 347 346 346 346 347 348 347 350 350 350 349 349 348 347 347 348 348 346 348 345 345 343 343 343 342 341 341 343 343 343 343 346 346 346 345 344 344 345 346 346 346 346 345 345 348 346 347 341 341 346 346 347 346 347 347 347 349 345 344 343 343 342 342 341 343 341 340 338 338 337 336 333 332 332 332 332 330 330 329
344 346 348 348 349 348 347 345 346 347 346 346 346 350 349 348 347 348 347 347 347 346 347 346 345 345 343 342 345 343 341 341 340 343 342 343 342 346 346 346 345 344 344 344 345 346 346 346 346 348 347 346 344 336 333 336 341 345 346 345 346 347 347 345 343 342 341 341 340 342 341 341 339 337 337 336 335 333 332 332 332 331 330 330 329
343 346 346 349 349 348 348 347 347 347 346 347 348 349 348 346 347 347 347 346 345 345 347 346 346 344 343 344 345 345 344 342 344 347 343 342 345 347 346 345 345 344 344 344 344 346 346 346 347 347 345 341 330 332 331 338 338 343 344 346 345 342 344 345 342 341 340 340 339 341 340 340 338 337 336 336 335 333 332 331 331 330 329 329 329
345 347 348 349 349 349 349 348 349 347 347 348 348 348 348 346 346 346 346 345 343 345 346 349 349 346 343 345 344 346 344 341 345 341 342 342 344 343 343 342 342 342 344 342 342 340 343 339 340 342 338 333 331 329 329 335 341 343 344 343 344 342 342 343 341 340 339 338 338 340 339 338 337 336 335 335 334 333 331 331 330 329 328 330 328
347 345 346 348 351 351 350 349 348 347 348 349 348 349 348 345 345 346 346 345 343 344 346 348 349 349 344 345 347 345 348 343 342 342 342 341 341 341 341 341 340 340 343 341 340 339 339 335 332 334 333 331 331 332 337 339 339 343 342 344 347 346 343 342 341 340 339 337 337 339 338 337 336 335 334 334 333 333 331 331 331 328 330 329 327
345 345 347 348 351 351 351 348 348 347 350 350 349 348 345 346 347 346 346 345 343 342 346 344 349 352 348 344 350 342 349 343 344 343 341 342 341 338 340 340 340 340 343 339 337 338 336 334 330 331 332 330 326 330 339 342 341 342 342 345 347 346 342 340 340 339 339 338 337 337 336 334 334 334 334 334 333 332 331 331 329 329 330 328 326
339 344 347 348 349 349 351 348 348 348 349 349 349 346 345 346 348 347 347 347 345 342 343 346 348 351 351 349 345 343 344 344 341 341 340 344 342 339 340 339 339 339 341 338 333 335 339 337 332 331 332 328 330 335 337 342 343 341 342 346 346 342 341 340 340 339 338 337 336 336 335 332 332 333 332 332 334 334 332 330 331 330 328 329 329
337 344 345 348 349 349 350 348 349 348 348 350 349 348 343 347 349 347 348 350 346 345 345 347 349 349 351 353 350 347 342 343 341 341 340 342 345 343 342 339 339 338 341 338 332 334 341 341 337 335 337 338 331 338 340 339 342 343 342 345 343 341 340 339 339 338 338 336 334 335 334 332 331 331 332 331 333 333 332 332 331 330 329 329 329
343 346 346 347 349 350 351 347 349 347 347 351 348 347 345 346 348 348 348 348 348 348 350 348 351 347 348 356 351 352 347 345 344 343 342 347 348 351 351 350 347 346 345 338 334 339 342 336 333 336 331 335 330 336 337 339 341 344 346 345 344 341 340 339 338 337 336 334 333 333 334 332 331 331 331 331 332 332 331 332 331 331 329 331 330
347 345 345 346 348 349 350 348 350 350 348 350 349 351 346 346 347 348 349 347 349 348 349 348 349 349 347 353 351 349 351 354 349 347 348 351 351 352 351 349 349 343 344 341 339 339 341 338 337 341 338 335 337 338 339 339 339 341 346 346 344 343 341 339 338 336 334 332 330 330 331 332 331 330 330 330 330 330 331 331 331 331 329 330 328
346 345 345 346 349 347 348 349 351 350 349 349 350 354 349 347 349 348 347 347 351 350 346 348 348 348 348 350 352 349 351 350 355 344 347 348 347 350 350 346 344 343 345 347 338 337 342 335 337 341 345 341 337 336 338 338 337 341 345 345 347 344 341 339 338 336 334 331 329 327 328 329 331 330 330 330 328 328 330 332 330 330 330 329 328
348 349 348 347 348 347 348 351 351 351 349 348 349 352 351 348 350 350 348 350 350 348 346 346 348 349 349 349 350 350 353 351 356 346 346 347 347 348 347 344 345 343 347 345 341 340 341 343 347 344 347 342 337 339 341 339 339 340 343 344 345 343 343 340 338 336 333 331 328 326 325 327 327 330 331 331 331 330 329 330 330 330 330 329 328
346 349 350 348 348 349 349 351 348 349 352 348 352 350 350 348 352 351 350 351 349 350 349 348 348 349 349 349 349 349 350 353 353 349 352 348 346 347 345 343 346 346 348 343 350 341 341 341 343 342 346 340 335 337 340 341 342 341 341 343 342 341 341 339 338 336 334 331 328 325 324 324 325 325 326 330 330 330 331 330 329 328 328 329 328
346 348 350 349 349 349 350 349 349 348 352 350 352 354 352 350 348 348 350 348 347 347 354 349 347 348 347 348 349 349 347 349 351 354 349 350 347 346 345 347 346 350 349 354 353 344 343 343 345 337 344 337 336 336 339 339 339 339 340 342 340 341 341 339 339 337 337 333 329 325 324 323 323 324 325 323 328 329 329 329 330 330 329 329 329
347 349 350 351 349 350 351 352 351 348 351 351 353 357 350 352 350 352 352 347 346 346 350 348 345 347 347 347 348 349 348 348 347 348 348 347 344 344 344 348 345 352 352 350 347 345 339 344 343 348 341 337 336 338 339 337 338 338 338 339 340 339 339 339 340 341 342 340 333 329 326 323 322 323 325 322 323 326 328 328 330 330 328 328 329
350 349 350 349 349 350 350 352 352 350 351 353 354 356 356 353 353 349 353 348 346 346 349 350 347 347 347 346 347 349 348 347 347 346 350 344 345 343 343 346 352 349 350 350 342 342 342 342 349 346 345 339 338 335 336 337 335 335 335 337 337 340 337 338 338 338 340 339 334 327 325 325 326 327 321 320 320 322 326 329 330 330 328 329 329
352 350 350 349 349 349 350 351 351 351 351 352 353 353 355 353 358 350 353 347 348 347 349 347 347 347 346 346 347 348 347 346 347 348 346 345 345 343 343 346 348 351 349 348 340 340 346 346 345 347 342 343 337 334 334 334 334 332 332 332 334 337 337 337 337 338 339 337 330 326 325 325 324 322 320 317 317 320 322 326 329 330 329 328 329
351 350 349 351 350 350 350 350 349 351 351 352 352 353 355 354 352 352 350 347 347 347 347 344 345 347 345 347 346 347 347 346 347 349 345 345 344 345 344 349 347 350 348 349 344 342 344 349 348 345 340 342 343 337 336 335 334 334 333 331 331 333 337 339 338 337 336 335 328 327 328 325 325 323 321 320 317 318 319 320 321 323 326 328 328
350 349 348 350 350 350 350 350 350 351 351 351 351 348 348 346 344 348 345 343 344 343 347 343 346 344 345 346 346 348 346 347 346 348 346 345 344 346 350 348 347 347 347 345 344 340 347 346 348 344 341 342 342 339 338 335 334 333 332 333 334 334 334 336 337 337 332 328 324 324 323 324 325 324 323 322 319 316 318 320 323 321 323 327 327
351 350 348 349 350 349 348 348 349 350 349 348 347 345 343 343 344 345 343 345 342 345 346 350 344 344 344 345 346 346 345 346 347 347 346 347 346 350 350 346 347 346 347 346 347 349 348 348 346 345 339 339 338 339 336 334 330 327 329 329 330 332 333 334 333 334 330 329 327 323 324 324 324 323 322 322 321 318 317 318 319 320 321 323 324
351 351 348 348 349 349 348 349 349 349 349 348 347 346 346 344 343 343 344 343 342 341 342 345 348 346 346 345 346 345 345 346 347 348 347 347 346 348 348 346 346 346 348 348 348 348 350 345 345 342 341 338 336 337 335 332 328 325 323 323 325 328 330 330 329 328 328 330 328 323 323 323 322 321 321 321 320 320 318 317 317 318 319 321 322
351 350 350 349 349 348 348 349 349 349 349 349 348 346 347 348 347 346 345 343 346 346 344 345 349 345 348 345 346 345 345 345 347 348 347 347 347 348 348 347 345 346 347 346 346 346 347 344 344 341 339 340 338 338 335 334 327 328 326 322 319 319 324 327 329 328 328 326 328 326 324 321 320 321 321 318 318 318 319 318 319 319 320 320 320
350 351 350 348 348 347 347 349 349 350 350 349 348 349 350 350 350 349 349 345 343 346 347 347 350 351 346 345 346 346 345 346 346 347 347 348 347 348 349 349 345 346 348 345 344 344 346 345 344 343 341 335 335 334 338 339 332 327 320 321 320 321 315 318 321 322 324 324 323 323 324 321 322 322 320 318 317 316 316 317 317 319 320 320 319
350 349 349 348 348 347 347 347 348 349 349 349 349 350 349 349 348 349 349 346 346 345 344 341 343 345 344 345 345 346 345 346 346 346 346 348 348 349 348 347 347 346 347 345 344 343 345 344 345 343 340 336 334 335 338 340 335 332 328 323 319 318 318 319 319 318 323 321 319 320 324 320 322 323 321 320 318 317 316 317 318 319 319 320 319
350 349 349 349 348 347 348 348 349 349 348 349 350 349 347 346 344 342 340 340 338 339 337 338 339 339 340 344 346 345 345 345 346 346 345 348 348 349 350 348 346 347 346 348 345 345 344 343 343 343 342 340 336 335 333 338 339 338 339 335 333 321 320 319 317 311 320 324 324 323 321 322 321 322 321 319 318 317 318 317 317 316 318 319 317
351 351 351 350 350 349 348 348 348 348 349 349 349 349 348 346 345 342 341 340 338 339 342 345 342 342 345 343 344 347 345 346 346 346 346 348 348 348 348 349 347 347 348 348 347 345 342 341 343 342 342 338 337 331 332 333 334 334 337 338 336 335 327 319 316 316 311 317 319 320 319 319 318 318 317 317 318 318 317 316 315 315 316 318 318
351 351 350 351 350 350 349 348 348 348 349 349 349 350 348 346 345 343 343 342 341 340 342 345 347 345 344 345 344 347 346 346 347 346 347 347 347 348 348 349 347 346 345 345 345 347 346 345 345 343 341 336 336 333 331 333 329 328 333 335 335 336 326 326 324 318 315 310 312 317 319 319 317 318 317 317 317 318 317 315 315 315 316 316 316
351 349 350 350 351 351 350 349 348 348 349 350 349 349 349 348 346 345 344 344 344 344 344 345 345 345 345 345 344 344 345 346 346 347 347 346 347 347 347 346 347 345 344 344 344 344 346 345 344 343 341 335 334 336 334 333 332 330 330 331 334 331 326 328 327 324 318 313 312 312 313 317 321 321 320 317 318 318 317 316 314 313 316 315 315
351 351 352 352 352 351 350 349 348 348 349 349 349 349 350 348 346 346 345 343 345 344 343 344 345 346 344 344 344 344 343 346 348 347 347 347 347 347 347 346 346 346 343 342 343 344 346 345 345 344 344 340 336 334 333 333 333 334 333 330 329 329 325 325 326 324 323 320 313 312 314 310 310 315 320 318 317 317 316 317 316 314 313 314 315
352 352 352 352 352 352 350 348 349 349 349 349 349 348 350 349 347 347 346 344 345 345 342 342 343 344 343 343 344 344 343 345 348 348 348 347 347 347 346 346 347 346 345 343 347 347 347 346 346 346 344 343 340 335 334 334 333 331 331 332 330 329 325 323 323 323 321 318 315 313 315 312 312 312 315 317 315 315 315 317 316 314 312 313 313
Wind_Speed
16 19 16 18 17 16 16 17 17 17 17 17 17 17 16 16 17 15 15 15 14 15 15 15 15 15 15 14 14 13 14 14 14 14 14 14 14 13 12 12 12 13 13 13 13 13 13 13 13 13 12 12 12 12 11 11 10 10 10 10 10 10 10 11 11 11 11 11 11 11 12 13 14 14 15 15 16 17 17 16 15 11 7 10 14
18 17 15 16 18 16 17 17 17 17 17 17 16 16 16 16 16 16 16 15 15 15 15 15 15 15 15 14 14 13 13 14 14 13 13 14 13 13 12 11 11 12 12 12 12 12 12 12 12 12 11 11 11 11 10 10 9 9 9 9 8 8 8 9 9 10 11 11 11 11 12 14 14 14 14 15 16 16 16 16 16 10 6 12 13
18 16 15 18 18 17 17 17 18 18 17 17 16 16 16 16 16 16 16 16 15 15 14 15 15 15 15 14 13 13 13 13 14 14 14 13 12 12 11 10 11 12 12 11 11 11 12 11 11 11 11 10 9 9 9 8 8 8 8 8 7 6 7 6 7 7 8 9 10 11 12 13 13 13 14 15 15 14 14 14 13 12 8 13 12
19 15 15 17 19 17 16 17 17 18 18 16 18 16 16 16 15 15 15 15 15 14 15 14 14 14 14 14 13 13 13 13 13 13 13 12 12 11 11 10 10 11 11 10 10 11 11 10 10 10 9 9 8 8 7 7 6 6 6 6 5 4 4 5 3 5 5 8 9 7 2 5 8 12 14 14 15 15 13 13 13 13 12 11 13
19 16 16 15 16 16 17 17 17 18 18 17 17 16 16 15 15 14 15 14 14 14 14 14 14 14 14 13 13 13 13 13 11 12 12 12 11 11 11 10 10 10 10 10 11 10 9 9 9 9 8 7 7 6 6 6 5 4 5 3 2 2 2 2 1 3 3 4 4 3 0 7 6 10 12 13 14 14 13 14 14 13 13 12 13
17 16 15 15 15 16 16 17 17 18 18 18 18 17 17 16 16 15 14 14 13 14 14 14 14 14 14 14 14 13 13 13 12 12 12 11 11 11 11 10 10 9 9 10 10 9 9 8 8 8 7 7 7 7 6 6 5 4 3 3 2 2 2 1 0 0 2 3 3 1 1 1 7 6 12 12 12 12 13 13 13 14 14 12 12
19 14 15 15 13 16 17 17 17 18 18 18 18 17 17 17 15 15 14 14 14 13 13 14 14 14 14 14 14 14 13 12 12 12 11 12 11 11 11 10 9 9 9 9 9 8 8 8 7 7 7 7 8 7 7 7 6 5 4 2 3 4 4 4 3 2 2 2 2 2 1 3 6 6 11 11 11 11 10 12 12 13 13 13 12
15 14 14 14 13 17 17 17 18 18 18 18 18 17 17 16 15 15 15 15 14 14 14 14 13 13 14 14 14 14 12 12 12 12 12 11 12 11 10 10 9 8 8 8 8 8 7 7 7 7 7 7 7 8 7 6 6 5 4 4 3 5 6 6 6 5 5 3 4 2 4 7 7 6 10 11 12 12 11 10 11 12 13 13 13
15 15 14 14 14 22 18 17 17 18 19 18 18 18 18 17 16 16 15 15 15 14 14 14 13 13 14 14 13 12 13 12 12 12 11 11 11 11 10 10 9 8 8 7 7 7 7 7 7 7 7 7 7 7 7 7 6 6 5 3 4 5 6 8 7 7 6 3 7 3 6 9 8 6 9 12 12 12 12 11 10 13 13 13 13
16 14 14 12 15 20 18 17 17 18 18 19 18 18 18 17 17 16 16 15 14 14 14 13 13 13 14 13 13 12 12 11 11 11 11 11 11 11 10 9 9 8 8 7 7 7 7 7 7 7 6 6 6 6 6 6 6 5 6 5 4 6 6 7 8 6 4 5 3 9 9 11 8 7 10 11 12 12 11 13 10 11 10 12 13
16 14 13 14 19 20 18 17 17 17 18 19 19 18 18 17 17 16 16 15 14 14 13 13 14 14 14 13 13 12 12 11 11 11 11 11 11 10 10 9 8 7 7 7 6 6 6 7 6 7 6 5 5 5 5 6 5 6 6 6 7 7 9 9 10 7 6 8 5 4 11 15 7 6 11 11 12 12 12 12 12 12 12 13 13
16 13 13 13 19 19 18 17 17 17 19 19 19 18 17 17 16 15 15 15 14 14 14 14 13 14 14 13 13 12 11 11 11 11 11 11 10 10 9 9 8 7 6 6 6 6 6 6 6 6 5 5 6 7 7 7 7 6 6 7 7 10 12 16 12 8 11 9 6 7 11 10 8 8 12 11 11 11 12 13 13 14 15 15 15
15 14 14 15 16 17 16 16 16 18 17 19 19 18 17 16 16 16 15 14 13 13 14 13 13 12 13 13 12 12 11 11 10 11 11 11 10 9 8 8 7 7 6 6 6 5 5 6 5 5 5 5 5 6 7 8 8 9 8 8 10 12 11 14 5 1 3 7 13 9 10 7 6 10 11 11 11 12 13 14 15 15 16 16 16
15 15 14 14 14 18 17 16 15 15 15 16 17 17 16 16 15 15 13 13 12 12 12 11 11 11 11 13 11 11 11 11 11 10 10 11 10 9 8 8 7 6 6 5 5 5 5 5 5 4 3 4 4 4 6 7 7 8 9 10 12 11 9 9 3 4 1 6 4 12 10 6 6 11 11 11 13 14 15 16 16 16 17 17 17
17 17 15 14 15 15 19 15 15 14 14 14 15 15 15 14 13 12 12 12 11 11 10 10 10 11 11 11 11 11 11 10 10 11 11 10 9 8 8 7 6 6 5 5 4 4 4 4 4 3 3 3 4 4 5 6 7 8 8 9 14 10 9 6 4 3 4 2 7 10 9 7 9 11 12 14 15 15 16 17 16 16 17 17 17
18 17 16 14 15 15 14 16 15 14 14 14 14 14 13 13 13 13 12 11 11 10 11 11 11 11 11 11 11 11 11 10 10 10 10 10 9 9 8 6 6 6 4 4 3 4 4 3 3 3 2 3 3 4 5 6 7 8 8 12 10 8 9 7 4 2 1 4 7 9 9 7 13 15 16 17 18 17 17 17 17 16 16 16 16
16 17 16 15 15 15 13 13 13 16 14 14 14 14 13 13 12 12 13 11 12 12 10 11 10 10 10 11 11 11 11 10 11 10 11 10 9 9 8 7 6 5 4 4 4 3 3 3 2 1 2 2 3 4 5 6 7 8 7 12 8 5 7 6 1 1 4 7 7 8 8 8 16 17 19 19 18 17 17 16 17 17 17 16 16
16 16 15 15 14 14 13 13 13 12 12 13 16 16 14 14 13 13 13 13 13 11 11 10 11 10 9 9 10 11 11 10 11 9 9 10 8 10 8 7 6 5 5 4 3 3 3 2 1 1 1 3 3 3 4 5 6 7 7 10 7 5 9 7 2 2 6 8 8 9 8 13 19 18 18 18 17 16 16 15 15 16 17 17 18
15 16 15 14 14 14 13 13 13 12 12 9 10 14 16 15 15 13 14 14 13 12 12 11 11 11 11 9 10 11 10 10 10 9 8 7 9 10 8 8 6 5 4 4 3 3 2 2 0 1 2 4 4 3 3 4 6 7 10 10 6 7 7 3 1 5 7 7 8 9 8 17 17 18 17 17 17 16 16 16 15 16 17 18 18
13 15 14 13 13 14 13 12 12 12 11 9 11 12 15 17 15 15 15 15 13 13 12 12 11 11 11 11 10 9 9 8 10 8 10 7 8 8 9 7 7 6 5 3 3 3 2 2 1 2 4 5 5 4 4 5 5 5 13 9 9 7 4 3 7 7 7 8 9 7 14 17 18 17 17 17 17 17 17 16 16 17 17 17 16
9 13 13 12 14 14 15 11 12 14 12 11 9 12 13 16 13 15 15 14 13 13 13 13 10 10 10 10 9 6 5 4 6 7 9 6 9 7 10 8 6 6 5 4 4 3 3 2 3 3 5 6 5 5 6 7 6 4 10 9 8 5 4 5 6 6 8 7 9 9 17 17 17 17 17 17 17 17 16 15 15 16 16 15 15
9 10 12 13 12 13 14 13 11 14 13 9 10 9 11 13 11 11 10 11 12 13 10 8 10 7 11 8 6 6 5 5 5 7 5 7 9 7 9 9 7 7 5 5 5 4 4 4 4 6 6 6 7 3 3 5 4 7 10 8 5 5 5 4 4 7 9 7 9 11 17 17 16 16 17 17 17 17 16 16 16 17 16 17 17
9 8 9 11 10 11 12 13 13 12 14 12 10 10 12 9 11 10 9 11 10 10 9 10 9 8 8 8 6 6 7 6 5 6 6 9 7 8 8 8 7 8 7 6 6 6 6 6 7 6 7 8 4 3 3 2 5 6 7 4 4 3 3 5 6 7 8 8 7 15 15 16 16 16 16 17 17 17 16 16 16 17 16 16 16
10 9 9 9 10 10 12 11 13 13 10 9 9 9 9 9 8 9 8 7 8 8 9 9 8 9 9 7 6 7 7 7 10 13 10 7 6 11 10 8 8 8 9 6 7 8 9 8 8 8 5 4 4 3 2 7 2 3 3 4 5 3 3 2 6 7 7 9 9 16 15 15 15 16 16 16 18 17 16 16 17 17 16 16 17
8 9 9 9 11 10 10 11 12 12 11 9 10 9 8 8 9 9 9 8 8 7 8 8 7 9 8 7 8 6 7 7 5 4 4 5 5 4 5 5 4 5 8 4 4 5 6 5 5 6 5 5 5 5 8 7 5 4 3 4 6 4 2 2 7 8 8 7 8 14 14 14 15 15 15 16 17 16 15 14 16 17 16 18 18
7 8 10 11 8 10 10 10 11 12 10 10 10 10 10 7 8 9 9 8 8 7 7 7 7 8 8 8 6 6 4 7 7 5 4 5 5 5 5 5 5 5 6 5 5 5 5 5 5 6 6 5 5 2 12 5 4 5 4 3 4 3 5 6 7 8 8 7 8 15 13 13 14 14 14 14 15 16 14 16 18 15 16 17 16
7 7 9 9 9 10 11 13 11 11 10 12 10 10 9 7 7 8 8 8 8 7 7 7 7 7 7 7 4 6 3 7 6 5 5 5 5 5 5 5 6 6 5 6 6 6 5 6 6 6 6 6 8 4 10 5 6 5 4 3 4 2 6 6 8 8 7 7 9 15 13 13 12 13 13 13 13 15 14 16 16 15 17 16 15
7 7 8 8 8 12 12 14 11 11 7 10 12 10 8 9 9 8 9 10 8 7 6 7 6 8 6 6 7 4 4 5 6 4 5 5 6 6 6 6 6 6 6 6 6 6 6 6 7 7 7 7 2 16 8 5 5 5 8 5 4 4 6 7 8 9 7 7 7 12 13 12 12 12 12 11 15 15 13 14 15 16 16 16 17
9 10 10 9 10 11 10 12 11 11 8 7 11 8 8 8 10 8 10 10 9 8 7 7 6 7 5 3 6 5 5 4 7 6 6 7 5 7 8 7 7 7 7 7 6 6 5 3 3 3 0 0 7 12 7 4 3 3 5 4 5 6 7 8 8 9 7 7 6 10 14 13 12 12 11 10 14 14 13 14 15 15 15 16 17
8 10 10 9 9 10 9 12 10 10 9 5 10 9 9 8 10 9 7 10 7 7 7 5 5 5 4 2 3 3 5 5 6 7 6 4 3 3 2 2 5 3 3 7 6 5 3 3 4 2 1 2 10 11 7 6 2 1 2 4 5 6 6 7 8 8 7 7 6 8 15 14 12 11 10 10 14 14 15 15 15 15 16 17 16
9 10 11 9 9 11 7 10 8 9 9 5 5 6 9 7 8 9 5 9 9 8 6 5 6 6 5 3 3 3 3 2 3 4 3 2 2 2 2 3 2 4 4 5 5 4 3 3 3 2 1 3 15 9 9 8 6 2 1 3 5 5 5 6 7 8 8 7 6 6 10 15 13 12 11 11 12 12 14 14 14 15 15 15 15
11 11 10 10 10 12 10 11 9 8 8 4 5 3 7 7 6 7 6 8 6 6 6 6 6 6 7 6 4 4 3 3 1 5 3 3 2 2 2 3 3 3 3 1 4 4 2 3 3 1 1 9 14 10 8 7 6 3 1 4 3 6 6 7 7 8 8 7 6 6 5 8 12 11 11 10 11 11 14 14 13 13 14 15 15
8 11 12 13 13 11 10 9 10 8 9 7 6 4 5 5 4 4 6 7 6 7 6 6 5 5 7 6 5 5 3 2 1 4 3 3 3 3 3 4 4 4 3 3 3 4 2 1 0 0 1 9 11 9 7 6 7 4 4 4 4 5 5 7 7 8 9 7 6 6 6 6 8 13 15 14 14 12 11 15 13 13 13 15 15
9 7 12 13 11 8 7 6 9 8 8 8 5 5 6 5 4 4 5 6 5 4 5 6 6 5 7 6 6 5 3 2 2 3 2 3 4 3 3 5 4 4 3 3 1 3 1 2 2 2 2 12 9 8 6 5 5 6 6 4 4 4 5 6 7 6 7 7 7 6 7 7 6 5 7 13 14 15 16 14 13 12 12 13 15
8 8 10 13 12 10 7 6 8 10 7 7 6 5 6 5 5 5 5 6 6 5 3 5 6 4 7 6 6 5 5 3 3 2 3 3 4 4 4 3 3 3 3 2 0 2 3 3 2 3 6 12 10 7 8 7 8 8 5 4 4 4 4 5 6 6 6 7 6 7 7 7 7 6 5 3 10 15 15 15 14 12 10 13 14
12 10 9 12 11 9 7 5 9 10 8 8 6 4 8 6 5 5 5 8 6 6 4 4 6 5 6 7 5 5 5 4 4 3 4 3 4 4 4 3 5 3 2 3 2 2 4 3 3 3 7 12 9 6 4 6 6 7 4 3 4 3 4 4 5 4 3 4 6 7 7 8 7 6 6 4 4 9 15 14 14 12 11 13 13
12 13 12 13 12 10 9 6 6 9 8 6 6 4 4 5 4 6 5 8 6 5 3 4 5 4 6 7 6 5 6 6 6 5 3 4 4 5 5 4 3 3 3 3 4 5 3 4 3 7 6 10 11 10 6 5 5 5 3 3 3 3 3 3 2 2 0 2 3 6 7 7 8 10 6 5 4 5 12 16 15 12 11 13 12
13 13 12 14 13 11 9 7 7 7 7 6 5 5 3 4 2 5 5 7 7 5 4 4 4 4 7 7 8 7 7 6 6 4 5 5 4 4 6 5 4 3 3 4 5 4 3 3 5 6 6 7 8 11 10 5 5 4 3 4 1 2 2 1 1 0 1 2 4 6 6 7 8 7 7 5 5 5 6 12 16 14 12 12 13
8 11 10 10 11 11 9 8 8 8 7 6 5 3 3 3 3 4 6 6 6 5 6 7 6 5 7 8 8 6 6 6 6 4 6 5 5 4 5 4 4 3 3 2 3 3 3 5 6 7 5 2 5 8 9 8 7 6 5 5 2 1 1 0 1 2 2 4 4 5 4 6 7 7 6 6 5 6 6 5 6 4 7 14 13
12 10 14 11 11 10 8 8 8 8 7 6 5 5 4 5 6 4 7 6 6 6 5 7 6 6 7 10 8 7 7 6 6 4 6 6 6 4 5 5 4 4 3 3 3 4 3 5 5 8 5 3 6 9 9 9 9 8 7 5 3 1 0 1 1 1 2 3 4 5 5 5 6 7 8 7 7 7 6 6 7 5 5 10 14
14 14 14 12 12 11 11 10 9 8 8 8 7 7 7 7 6 5 6 7 6 5 5 3 7 7 8 9 9 7 7 7 5 5 5 6 5 3 5 5 3 3 4 3 3 2 5 5 5 7 8 5 7 8 8 8 10 8 6 6 5 5 2 1 1 1 4 3 3 4 5 4 4 3 4 5 5 5 5 6 7 6 5 5 8
13 13 13 13 11 12 11 10 9 9 9 8 7 7 7 7 7 6 6 7 6 6 5 4 4 6 7 8 8 9 7 6 6 5 6 6 5 4 3 5 4 3 3 4 3 2 3 5 5 4 7 7 6 9 8 9 5 6 6 5 5 4 5 3 2 4 5 3 2 4 4 4 4 5 4 4 4 4 5 5 6 7 6 6 6
15 14 13 12 11 10 9 10 9 10 9 10 9 8 7 7 6 6 7 6 5 5 4 4 3 6 6 8 7 8 8 7 7 6 6 6 5 5 4 5 5 4 3 4 3 3 2 5 4 5 6 5 6 8 8 5 7 7 6 7 4 3 2 2 1 2 2 3 1 2 2 4 7 4 4 3 3 3 3 3 3 4 6 7 5
14 14 14 16 13 11 10 9 10 10 10 10 9 9 8 7 8 6 7 6 6 6 6 5 3 4 7 8 7 7 8 7 8 7 6 6 6 5 3 3 5 4 3 4 3 3 3 4 4 4 5 7 6 6 7 3 8 10 7 5 6 4 4 4 4 2 4 4 4 1 0 3 4 4 5 4 3 4 4 3 3 1 2 7 6
14 15 15 15 11 14 13 11 10 9 9 9 11 10 10 9 9 8 7 8 7 7 6 7 5 4 5 5 6 6 7 7 8 8 8 7 6 5 4 4 4 4 3 3 4 4 4 4 4 4 5 7 7 6 4 3 8 8 6 6 4 4 4 7 6 1 1 1 3 5 3 4 2 2 3 4 4 4 4 3 3 3 2 1 5
15 14 15 15 14 13 14 13 9 9 10 11 12 10 10 9 10 10 10 9 10 9 10 10 8 7 7 5 5 7 8 7 7 8 9 7 6 6 3 4 5 4 5 3 3 4 4 5 5 5 4 6 8 7 4 2 2 6 3 2 2 2 5 8 7 4 2 1 2 3 4 3 3 2 2 4 5 5 3 4 3 3 2 1 5
14 15 13 11 12 12 13 14 11 10 10 11 13 10 11 9 10 10 9 10 10 7 6 6 7 7 5 8 6 6 8 8 7 8 8 8 8 6 5 4 4 4 4 3 3 4 5 5 5 6 5 6 7 7 8 6 2 3 2 1 3 1 6 11 5 7 5 2 2 2 2 5 6 6 5 4 5 5 4 4 4 5 4 3 3
14 15 13 12 14 13 13 14 11 12 11 12 14 12 10 10 10 9 8 8 8 8 9 6 6 7 6 8 7 6 7 8 7 8 8 7 8 7 6 4 4 5 4 5 4 3 3 4 5 6 7 6 5 7 7 6 8 5 4 3 2 1 9 3 8 9 8 8 6 3 3 6 6 5 6 6 6 5 5 4 4 3 3 3 4
12 14 16 14 13 13 13 13 12 12 12 14 13 13 10 10 9 8 8 7 7 7 8 7 7 7 7 7 7 7 7 7 8 8 8 8 7 6 7 5 4 4 5 5 5 5 5 4 4 5 8 7 5 5 5 7 7 7 6 5 3 3 6 4 5 4 4 7 6 8 6 5 2 3 4 5 5 6 5 5 4 4 3 4 4
11 12 14 15 14 13 13 14 12 11 12 14 13 13 11 10 10 9 9 9 7 8 8 8 7 8 8 9 8 8 8 7 7 8 7 8 8 8 7 7 6 5 5 5 6 5 5 5 4 5 5 9 6 5 7 4 6 5 6 6 5 4 4 4 3 5 2 4 8 10 9 9 7 4 2 4 7 5 5 5 5 5 5 5 4
10 13 14 15 13 13 15 15 13 11 11 13 15 14 12 11 11 11 10 10 10 10 10 10 9 9 9 10 9 8 7 8 6 6 7 8 8 8 7 6 5 5 5 6 3 3 5 4 4 4 5 5 7 9 5 4 4 5 5 5 8 9 9 8 8 7 6 5 6 8 9 9 8 8 6 5 6 6 6 5 4 5 6 5 4
Wind_Direction
131 128 131 134 132 133 134 134 132 132 132 129 124 124 123 121 121 119 120 119 119 120 118 116 114 109 108 107 102 102 99 99 100 100 100 97 93 91 93 94 98 100 98 95 94 93 91 91 89 85 84 83 80 78 76 75 74 75 76 73 73 74 76 75 75 72 72 75 81 81 77 71 66 65 60 53 48 52 52 56 65 59 62 55 59
134 127 130 135 134 136 136 135 135 134 132 126 123 122 121 120 120 122 121 123 123 122 120 117 115 112 109 108 106 103 103 103 103 101 101 99 94 92 93 97 99 99 100 99 97 94 92 88 87 84 81 79 78 75 74 75 75 75 75 73 72 73 78 81 83 83 81 80 80 84 78 72 67 64 59 56 54 52 52 53 57 57 60 65 62
126 126 131 135 134 137 138 137 138 137 132 129 125 123 122 122 123 121 124 124 124 123 120 120 117 116 113 110 108 105 105 106 105 103 100 97 98 95 96 101 104 102 102 102 98 94 91 88 84 84 81 78 75 73 70 69 71 72 69 70 69 71 76 80 82 93 101 94 89 92 84 74 70 70 70 63 61 61 59 57 55 59 50 49 55
126 128 129 133 135 137 140 139 140 139 136 132 133 123 121 120 120 120 121 120 122 122 123 121 118 118 115 111 108 107 107 107 107 105 100 98 99 101 101 101 105 104 102 105 102 99 93 87 85 83 80 77 75 73 70 68 65 62 66 67 66 55 71 74 89 78 99 110 119 101 53 93 72 72 72 68 64 61 58 57 56 57 60 54 50
125 129 130 135 138 139 139 141 141 140 137 134 132 126 123 123 122 122 121 122 123 126 125 123 120 117 117 113 110 111 109 111 116 106 98 98 100 105 105 104 106 108 108 105 108 99 92 89 85 81 78 75 71 69 67 65 61 53 50 49 51 54 29 103 77 107 78 141 150 101 183 90 87 79 78 71 62 56 56 59 54 52 52 54 49
127 129 134 138 140 144 141 142 143 142 139 138 135 129 129 128 132 129 127 127 127 131 130 124 122 121 118 117 115 115 111 108 108 103 104 105 106 107 109 111 109 110 110 110 107 102 96 92 88 81 75 71 68 67 65 59 53 48 37 18 358 312 310 323 95 195 180 121 232 351 314 59 96 79 74 72 65 57 53 54 54 50 52 45 45
129 132 136 139 140 147 144 143 143 143 140 139 138 133 132 134 133 135 134 133 132 132 129 126 124 122 121 121 120 112 110 111 108 109 111 114 113 110 108 110 111 111 113 114 109 104 99 94 88 79 73 69 66 64 62 58 52 47 50 0 328 304 291 295 290 276 253 261 231 213 280 134 93 85 78 71 61 56 55 48 52 52 45 45 43
128 135 140 139 141 148 146 144 144 143 142 140 142 139 137 136 138 139 137 139 136 136 132 130 125 125 125 124 121 114 114 114 112 112 117 117 115 112 112 112 113 114 114 116 112 105 102 94 86 82 72 65 62 59 55 52 51 52 46 33 323 312 292 292 295 308 311 353 299 279 269 108 92 86 79 75 64 58 64 53 46 46 46 41 42
132 137 137 136 141 147 146 145 144 144 142 143 142 141 141 141 142 140 140 139 140 137 134 131 129 128 126 125 123 121 117 115 116 116 115 115 115 119 121 118 114 116 116 118 114 107 95 91 86 81 75 65 59 53 48 41 35 34 34 15 1 322 327 317 309 318 296 209 217 214 154 101 101 91 80 71 65 58 52 47 35 38 34 39 41
135 138 135 132 143 145 145 145 145 143 144 145 143 143 142 142 141 142 141 141 139 137 135 133 133 131 130 127 123 123 118 119 119 119 117 118 119 122 122 118 118 121 124 120 116 106 99 94 90 83 75 67 58 56 49 40 31 18 16 3 346 352 352 330 327 303 297 340 28 68 71 84 80 78 75 71 65 58 50 44 42 44 42 40 43
135 134 131 133 143 144 145 145 145 145 145 146 146 144 144 143 143 143 141 141 140 140 137 137 136 135 133 129 126 123 127 122 123 125 123 120 121 122 123 121 119 120 123 123 117 112 102 96 95 86 76 64 54 47 39 30 19 10 2 352 348 6 4 349 349 352 25 320 340 75 83 81 77 76 73 67 61 53 45 44 44 51 51 53 54
132 126 124 130 138 141 143 145 145 146 148 147 146 146 146 144 144 143 143 142 144 143 141 138 139 137 134 129 128 127 127 128 129 132 129 127 130 127 121 120 120 121 122 125 118 106 101 99 93 90 76 57 39 26 17 11 9 359 354 344 353 16 14 19 37 13 328 333 334 71 73 79 81 78 72 67 63 54 48 50 56 59 59 61 61
128 119 115 126 140 138 140 142 145 148 150 148 147 147 145 145 145 145 144 143 144 142 141 139 138 136 135 134 133 134 131 134 140 132 132 135 130 126 128 127 127 127 127 120 110 106 105 103 99 90 77 60 43 23 9 1 354 349 347 342 13 35 23 58 90 213 97 10 285 82 84 80 76 71 66 67 62 59 61 63 62 62 62 62 62
115 109 120 131 142 141 139 141 146 148 150 148 145 144 146 146 146 143 142 143 143 143 141 144 139 135 137 141 142 137 134 138 137 136 138 134 135 135 137 137 130 131 125 123 118 111 114 112 102 90 77 55 42 29 10 352 345 347 341 350 21 32 65 89 116 70 75 203 237 76 72 65 71 66 65 66 67 70 68 66 62 62 61 61 62
113 120 127 131 138 144 140 141 145 147 147 146 142 140 144 144 142 138 138 138 139 136 136 134 131 139 140 143 140 141 140 143 143 142 140 138 139 144 138 126 138 134 139 133 128 124 118 112 101 87 63 43 32 20 6 349 341 340 342 6 35 62 100 97 90 231 210 259 73 82 78 73 65 66 72 75 76 72 70 65 61 61 62 63 64
119 123 125 131 139 141 145 144 144 143 145 142 137 137 139 140 137 136 134 134 131 126 129 133 137 139 146 148 149 148 147 148 146 145 143 141 150 147 130 140 146 152 145 152 141 139 125 111 100 78 36 21 22 11 360 344 341 334 334 33 54 79 101 107 128 248 278 24 81 83 79 71 73 74 76 77 74 70 65 65 64 62 65 67 66
120 123 126 135 138 144 147 151 146 145 142 139 136 135 135 136 137 134 132 131 129 130 133 140 142 147 152 155 153 152 149 152 147 150 149 147 158 144 147 148 158 160 164 168 160 152 133 117 104 65 16 353 7 9 352 339 335 326 341 51 62 67 100 97 118 232 80 72 71 72 73 76 78 77 74 70 67 65 63 61 60 61 60 62 65
122 123 129 136 141 144 149 149 149 150 145 141 140 136 135 138 137 135 133 130 132 134 143 140 145 146 151 153 157 154 153 155 151 154 160 154 154 145 159 160 161 179 177 167 176 156 140 121 96 5 325 331 325 343 348 322 324 317 358 55 72 68 70 75 58 48 76 86 81 80 80 85 81 76 73 71 69 66 64 63 64 65 63 60 61
125 124 130 140 147 147 153 146 157 157 151 147 149 143 142 140 140 139 135 134 134 142 148 146 150 151 154 153 158 153 159 159 157 158 167 147 155 165 165 160 174 179 186 192 177 172 153 150 107 291 301 298 305 308 309 309 298 304 33 46 66 80 69 58 52 84 81 80 86 84 86 85 79 77 74 71 70 69 67 64 64 65 64 61 62
127 129 137 148 153 151 152 155 162 155 157 154 151 148 146 146 145 142 144 141 141 144 149 148 154 155 156 164 158 158 159 162 165 168 165 171 171 175 160 173 179 187 195 205 208 186 184 207 219 276 272 281 288 299 291 279 291 320 61 55 29 42 42 7 67 75 81 84 86 84 88 85 82 79 75 73 73 73 69 66 65 65 63 62 61
133 136 143 154 157 154 151 154 166 156 158 155 151 147 147 147 146 144 144 144 147 153 150 149 153 156 161 165 165 172 161 159 179 174 165 188 180 191 162 174 189 194 206 218 222 220 217 226 250 253 269 270 283 282 275 269 267 40 80 68 47 38 22 46 53 73 81 79 85 90 88 85 82 80 78 78 77 74 70 68 67 65 64 63 63
140 140 148 157 155 156 154 160 162 159 156 155 154 146 147 152 152 146 147 151 154 155 153 155 163 162 166 167 180 169 175 163 185 175 166 192 189 182 176 169 189 210 204 230 237 233 237 241 251 257 262 271 271 281 238 232 254 72 81 64 47 31 16 38 61 80 81 80 87 91 88 86 84 83 84 83 79 74 72 73 71 68 68 70 69
143 141 152 157 151 152 158 162 159 163 157 159 154 143 151 158 157 153 155 158 160 161 166 170 166 166 173 183 184 177 175 161 185 181 177 193 184 169 189 184 193 211 214 236 247 247 245 246 250 257 259 271 270 240 264 152 82 105 86 77 59 51 10 28 74 83 82 84 84 90 89 89 88 87 87 86 82 78 77 76 72 69 69 69 71
145 151 154 155 153 158 158 164 158 162 164 156 146 149 156 163 154 156 154 158 164 175 179 179 175 176 177 192 199 182 167 167 187 175 187 183 157 170 196 207 209 215 223 232 246 251 247 251 249 250 263 251 239 224 213 59 47 51 79 77 80 66 42 105 99 95 95 91 93 91 89 90 90 89 89 88 85 81 78 76 74 71 69 70 68
151 145 156 152 155 157 159 159 158 159 173 149 142 154 164 162 160 154 161 158 172 195 176 187 191 173 188 187 200 181 172 175 147 155 182 174 150 183 188 206 209 215 217 230 230 225 205 223 220 217 226 238 243 221 102 129 157 82 85 107 115 97 42 100 97 95 93 93 94 92 91 91 90 89 91 89 87 81 79 80 76 71 68 69 68
146 159 160 150 165 153 151 158 164 166 173 143 152 155 163 169 161 156 163 162 174 198 170 191 191 183 189 193 197 179 184 130 150 172 186 171 181 180 190 198 208 212 197 209 225 226 190 206 221 201 210 225 235 217 117 135 125 99 125 108 93 139 144 112 102 100 99 99 96 95 92 90 91 91 91 92 90 84 77 75 74 69 71 72 70
162 160 158 153 163 159 157 166 171 171 164 154 149 156 165 172 160 158 165 165 170 198 181 186 187 190 192 196 160 174 171 143 169 165 204 166 187 183 189 188 207 206 189 193 221 223 204 197 213 215 196 208 226 84 93 65 90 106 117 115 117 137 121 116 110 106 105 102 100 98 93 88 91 94 93 96 94 87 76 78 77 74 75 74 71
163 161 154 153 174 166 169 170 168 168 177 157 145 159 169 170 158 165 174 163 172 190 191 184 181 183 198 191 145 175 187 163 154 171 207 191 185 186 186 189 200 203 189 184 213 235 212 195 211 217 194 196 165 95 115 115 129 161 147 152 146 141 116 115 112 113 112 109 106 101 98 92 90 94 96 94 88 85 82 80 80 73 72 72 74
168 161 159 161 175 169 167 173 156 160 178 151 151 163 162 179 158 173 183 161 173 176 202 174 169 176 201 187 159 176 173 204 157 172 198 222 196 183 187 189 195 203 179 185 208 229 218 191 253 252 174 100 83 98 98 107 79 169 136 143 157 133 131 127 122 121 119 114 112 109 102 97 92 93 96 90 87 85 86 82 80 80 78 77 76
166 146 155 160 167 170 168 166 155 161 173 177 159 169 161 192 162 175 188 157 166 178 190 154 144 162 184 209 164 187 197 209 166 173 196 203 181 212 192 238 181 211 200 171 201 237 196 188 244 230 231 117 75 99 100 103 113 108 161 161 144 134 130 122 124 119 116 108 104 104 102 97 96 95 92 89 95 90 85 85 86 88 79 79 81
153 157 160 163 163 166 174 160 158 164 176 173 181 168 152 186 166 169 170 158 160 184 172 153 146 169 178 177 163 224 252 269 164 163 147 187 206 157 192 265 234 217 241 165 187 236 192 195 224 164 246 74 85 109 128 144 145 240 197 119 115 111 121 119 118 119 115 114 114 108 103 102 99 94 85 76 74 87 95 93 87 82 83 84 80
165 166 166 164 159 166 180 159 162 167 156 187 175 183 162 171 179 157 165 162 170 157 169 150 164 169 169 165 166 209 229 274 253 148 152 192 183 209 179 227 239 216 243 152 165 231 217 211 217 149 53 84 105 103 127 132 150 193 159 105 125 130 134 130 124 120 116 121 123 116 110 105 101 97 86 84 93 87 84 87 88 84 83 87 83
172 171 166 161 157 166 175 161 158 157 161 182 173 202 150 180 165 160 173 154 175 151 179 161 169 166 158 157 168 199 213 240 300 148 169 176 183 192 188 224 234 207 203 196 220 173 251 272 28 90 81 106 106 129 136 148 153 160 139 141 129 128 126 124 125 126 130 136 134 133 126 115 106 87 81 77 67 59 88 97 90 89 87 92 90
165 183 148 159 152 159 172 159 160 165 169 183 161 203 154 176 171 175 161 145 161 181 177 157 158 162 143 158 168 179 195 225 245 167 183 174 189 185 205 216 219 227 161 198 186 121 224 251 178 120 145 85 96 90 105 132 136 141 136 135 126 117 122 126 130 132 135 143 150 149 134 132 116 103 86 78 73 66 61 71 74 86 99 95 97
170 174 158 152 150 156 169 165 155 170 178 173 193 188 149 179 188 175 165 151 161 179 208 145 151 166 145 159 165 165 182 220 251 172 210 201 190 172 218 218 213 209 140 112 57 142 222 226 146 179 101 89 89 129 135 149 144 132 126 130 125 118 113 126 131 137 149 155 161 151 148 132 132 126 108 96 78 74 70 65 62 57 91 99 103
170 173 159 141 148 151 156 143 159 173 171 174 203 182 167 199 176 186 148 158 160 178 198 160 160 166 149 148 164 161 182 195 222 215 213 224 194 178 205 210 218 142 117 135 192 233 194 212 186 139 91 98 122 113 121 121 110 105 97 93 108 117 116 122 134 145 154 166 173 163 133 135 136 130 121 105 94 84 79 73 64 61 99 108 107
166 167 158 145 146 153 152 154 158 164 165 175 196 204 179 193 174 192 154 157 159 167 192 169 157 159 138 143 161 170 191 198 210 207 179 230 227 164 189 230 170 134 179 170 173 233 200 187 85 77 96 116 123 121 100 88 91 82 63 75 29 97 112 121 122 123 49 227 173 96 110 123 121 114 117 128 116 99 87 81 71 70 101 107 106
167 165 149 148 147 154 159 164 162 160 167 177 192 191 204 198 210 173 131 151 153 157 191 178 171 166 139 150 166 173 195 199 215 192 179 230 241 200 172 203 141 160 206 164 180 225 216 153 104 95 92 102 145 136 136 147 128 116 107 73 61 61 109 123 117 67 251 217 139 121 123 128 121 129 127 125 130 121 110 92 84 78 91 107 104
167 159 141 137 143 148 156 160 164 160 169 166 189 182 202 214 240 177 149 160 158 178 192 186 175 155 144 154 170 165 194 198 217 192 186 221 246 223 165 159 149 179 197 186 182 224 236 105 112 99 88 146 131 128 129 129 121 130 122 121 112 321 15 357 134 170 224 235 118 109 113 102 127 130 130 133 137 144 143 136 105 94 86 96 103
161 165 148 144 143 148 155 158 163 157 159 165 178 183 201 207 222 184 154 164 162 201 219 184 160 151 157 155 168 158 190 204 209 194 186 222 234 240 142 142 166 183 193 182 203 209 140 112 112 100 104 115 95 114 120 118 105 99 96 90 56 3 27 303 34 273 170 89 102 106 106 136 128 139 152 153 154 157 164 148 121 118 113 110 113
162 158 151 147 148 156 163 167 166 157 169 174 185 187 193 201 209 202 166 160 168 202 219 215 155 160 167 156 157 165 185 199 212 193 189 228 231 241 138 156 172 200 178 197 222 239 127 121 117 125 144 128 115 116 114 116 116 96 81 83 70 33 31 126 65 258 37 353 107 131 137 123 134 121 103 103 114 128 143 130 129 132 122 120 117
157 152 151 147 155 159 169 168 169 168 176 179 184 194 200 199 191 191 167 165 165 189 215 233 165 154 161 154 152 170 186 194 207 191 197 224 225 235 177 158 169 217 184 179 214 262 120 125 129 129 133 144 138 134 138 122 98 131 135 116 88 70 27 27 53 66 64 314 298 96 107 130 124 99 111 126 139 141 137 138 143 147 147 135 127
154 156 146 143 149 157 169 169 172 174 179 181 189 196 199 194 191 192 165 165 174 181 204 215 180 157 154 155 158 166 184 188 201 196 189 222 223 237 177 161 170 218 196 175 183 218 139 136 142 141 135 137 132 144 150 153 136 135 119 115 149 128 116 87 36 65 109 229 334 88 132 123 117 138 130 121 135 137 121 119 127 137 151 146 131
160 153 151 155 157 161 176 170 173 174 180 185 187 199 199 187 196 180 165 166 175 187 191 200 191 160 156 158 164 167 182 189 196 196 189 209 220 238 179 160 170 211 205 176 168 195 159 138 148 157 145 133 149 162 180 157 142 145 153 194 159 165 158 186 157 33 4 3 22 355 66 102 123 126 138 147 141 99 100 99 106 100 106 132 139
163 159 159 160 164 168 166 172 170 175 181 182 190 198 197 189 193 170 173 166 174 190 186 181 192 186 155 160 166 167 187 192 196 196 191 197 208 231 189 180 175 202 229 183 178 189 154 159 164 166 171 152 156 159 171 158 168 184 145 143 145 210 210 151 133 94 132 146 163 236 91 101 90 101 134 132 116 116 120 131 116 84 48 68 128
162 161 163 165 162 159 163 164 170 175 182 185 195 201 202 187 187 173 180 181 176 188 191 174 177 184 175 169 173 179 190 202 198 197 195 183 202 220 218 183 172 195 222 212 183 172 172 177 173 166 167 148 150 151 158 198 193 220 233 192 131 170 164 142 144 164 187 198 309 283 140 140 125 146 112 126 126 129 140 116 114 118 164 187 119
162 156 154 160 155 160 162 162 169 176 181 189 199 206 199 188 196 181 186 182 170 181 175 156 162 171 174 164 190 183 192 202 203 197 195 179 189 214 214 192 178 187 200 219 219 183 174 196 169 164 152 137 144 159 169 180 176 267 256 279 84 276 131 145 185 117 163 192 236 238 149 185 171 171 169 163 142 146 143 142 151 171 182 161 147
157 153 151 155 161 165 165 166 169 176 184 190 201 206 196 187 189 181 188 187 171 170 169 163 156 163 175 164 184 189 195 203 203 198 199 180 182 201 208 204 188 180 186 207 223 200 180 189 178 165 135 155 158 168 167 168 185 211 197 207 145 239 154 170 160 164 158 161 186 199 197 217 196 179 173 158 160 147 136 145 173 154 158 151 96
156 158 154 157 165 169 167 167 168 176 187 192 199 198 195 188 183 180 182 187 171 165 163 163 161 165 174 168 186 188 199 206 202 203 192 187 181 193 198 202 202 189 188 199 212 212 188 193 176 158 147 153 172 176 161 174 184 199 175 205 176 179 162 190 167 173 145 154 164 175 181 211 188 205 155 165 133 132 146 169 168 164 173 134 161
162 161 153 156 167 166 163 165 171 180 188 191 197 198 192 179 183 192 178 181 172 160 166 167 172 173 178 174 188 190 192 205 203 197 194 189 185 192 194 198 201 204 192 211 206 209 188 183 176 159 158 154 168 177 201 195 180 184 181 177 180 170 163 197 183 174 132 166 161 179 183 166 177 190 154 154 128 151 159 181 181 166 142 166 170
153 165 160 160 160 161 161 169 180 182 194 191 191 197 192 181 185 192 183 181 176 163 170 172 177 177 180 177 187 189 190 198 199 189 192 199 187 187 193 195 196 207 210 211 233 207 166 167 167 155 166 179 163 164 188 225 220 189 182 180 192 189 185 187 182 184 167 160 138 170 178 165 174 161 194 167 156 156 177 175 169 148 145 181 171